Regional Weather Roundup
Issued by NWS Newport/Morehead, NC

Current Version | Previous Version | Graphics & Text | Print | Product List | Glossary Off
Versions: 1 2 3 4 5 6 7 8 9 10 11 12 13 14 15 16 17 18 19 20 21 22 23 24 25 26 27 28 29 30 31 32 33 34 35 36 37 38 39 40 41 42 43 44 45 46 47 48 49 50

000
ASUS42 KMHX 252113
RWRMHX
WEATHER ROUNDUP FOR EASTERN NORTH CAROLINA
NATIONAL WEATHER SERVICE NEWPORT/MOREHEAD CITY NC
500 PM EDT THU MAY 25 2017

NOTE: "FAIR" INDICATES FEW OR NO CLOUDS BELOW 12,000 FEET
WITH NO SIGNIFICANT WEATHER AND/OR OBSTRUCTIONS TO VISIBILITY

NCZ015>017-031-032-045>047-102-103-252200-
NORTH COAST

CITY           SKY/WX    TMP DP  RH WIND       PRES   REMARKS
EDENTON        CLOUDY    72  60  65 SW7       29.54R
ELIZABETH CITY RAIN      71  59  65 SW23G33   29.51S
KITTY HAWK     LGT RAIN  74  56  54 SW12G23   29.51S
MANTEO         CLOUDY    73  61  65 SW22G28   29.53R

$$

NCZ045>047-081-094-103-104-252200-
CENTRAL COAST

CITY           SKY/WX    TMP DP  RH WIND       PRES   REMARKS
FRISCO         PTSUNNY   77  61  57 SW20G32   29.59

$$

NCZ095-097-098-100-101-252200-
SOUTHERN COAST

CITY           SKY/WX    TMP DP  RH WIND       PRES   REMARKS
BEAUFORT       LGT RAIN  67  57  70 SW31G47   29.66R
CEDAR ISLAND   NOT AVBL
JACKSONVILLE   CLOUDY    69  61  75 SW13G22   29.62R
PINEY ISLAND   LGT RAIN N/A N/A N/A SW25G38   29.59S
WILMINGTON     CLOUDY    71  56  58 SW18      29.66S


$$

NCZ011>013-027>030-043-044-078>080-089-090>093-098-252200-
COASTAL PLAIN

CITY           SKY/WX    TMP DP  RH WIND       PRES   REMARKS
AHOSKIE          N/A     66  56  71 N3        29.54R
CLINTON        MOSUNNY   75  56  51 SW7G25    29.61R
ELIZABETHTOWN  SUNNY     74  56  52 SW15G21   29.64S
GOLDSBORO      PTSUNNY   75  52  43 SW23G29   29.56R
GREENVILLE     PTSUNNY   73  52  46 NW14G25   29.60R
HAVELOCK       CLOUDY    66  56  70 SW24G33   29.64R THUNDER
KENANSVILLE    PTSUNNY   75  55  50 SW12G22   29.60R
KINSTON        CLOUDY    77  52  41 SW20      29.58R
NEW BERN       LGT RAIN  65  58  78 SW15G25   29.61R
RICHLANDS      CLOUDY    71  60  68 SW15G22   29.62S
ROCKY MOUNT    TSTM      64  56  75 W6        29.57R
WASHINGTON     PTSUNNY   77  53  42 SW21G28   29.55S
WHITEVILLE     SUNNY     73  56  54 SW14G24   29.67R

$$

AMZ130-135-150-152-154-156-158-170-250-252-270-ANZ085-086-088-633-658-670-252200-
MARINE OBSERVATIONS

STATION/POSITION TIME  TEMP    WIND        PRES    WAVE   SWELL
                       AIR SEA DIR/SP/G            HT/PER HT/PER
                 (UTC) (F)     (DEG/KT/KT) (MB)    (FT/S) (FT/S)
CHESAPEAKE LIGHT NOT AVBL
64 E VA BEACH    2050   69 65  200/ 21/ 25  999.2    7/ 8
DUCK             2048   76 62  240/ 14/ 19  998.5
2 E DUCK         2100      64                N/A     3/ 6
OREGON INLET     2042   75 73  210/ 31/ 38  999.9
13E OREGON INLT  2048      66                N/A     8/ 6   3/17
HATTERAS CG      2048   75 74  220/ 23/ 32 1001.7
DIAMOND BUOY     2050   76 78  230/ 27/ 31 1001.2    9/ 8
CAPE LOOKOUT     2100   63     260/ 29/ 35 1004.3
BEAUFORT LAB     2048   68 73  240/ 12/ 21 1003.3
30 SE NEW RVR IN 2008   72 75  230/ 29/ 41 1002.8
30 SE NEW RVR IN 2043      75                N/A    11/ 9   2/11
27 SE WRIGHTSVLE 2008   67 75  240/ 29/ 49 1003.4
5 SE WRIGHTSVLE  2008   66 74  220/ 19/ 37 1004.4
225 S CAPE HAT   2050   74 76  220/ 17/ 19 1008.8   11/ 8   8/ 8
41 SE CHARLESTON 2050   73 76  260/ 23/ 29 1006.9    7/ 7

$$




USA.gov is the U.S. government's official web portal to all federal, state and local government web resources and services.